Colebee Real Estate, NSW, 2761 Blacktown

Thinking about buying in Colebee? Now could not be a better time, with a whopping 1785 properties either residential or commercial there's certainly plenty to choose from.

The average property price for this area is $884,000 with prices in this suburb ranging from $323,000 to $1,404,000.

Distance to the coast is 34 Km.

Colebee Real Estate Market Outlook

Prices are above market average and increase steadily under persistent demand. A more sustainable rate of price growth is anticipated in the short to medium term. In this area of average incomes, there is a mix of housing size and quality. While this may present buying opportunities, growth may be constrained. As buyers begin to examine Colebee due to other areas being out of the price range and the trend to working from home, "gentrification" may incease price growth. The high percentage of professional people in Colebee classifies the area as "gentrified". This implies high demand for quality housing, generally of larger than average size. Price growth is ensured even where the state affordability index is negatively impacting other areas. Medium density in Colebee necessitates a mix of lifestyle options for housing, shops, open areas, and facilties. Where this is available, demand is high and growth ensured. Higher than average industry presence in the wider area offering local employment yet with not a large negative impact on local amenity, provides good demand and price growth.

About

Properties For Sale

Harcourts 15 GRENFELL PL, COLEBEE, NSW, 2761 4 2 2 Expressions of Interest
LJ Hooker 46 MEDALLIST PDE, COLEBEE, NSW, 2761 5 3 2 Sold

Local Schools


None within suburb boundary

(While the above schools are located with the suburb of Colebee there may also be nearby schools whose catchments cover this suburb)

Local Crime Rates


Average Local Climate by month


(mm)
RAIN
Min (°C)
TEMP
Max (°C)
TEMP
Min (%)
HUMIDITY
Max (%)
HUMIDITY
(m/sec)
WIND
(MJ/sq m)
SOLAR
Jan2.518.631.642.294.32.922.2
Feb3.518.029.746.295.12.718.8
Mar4.615.92749.996.02.415.5
Apr2.212.224.647.496.72.014.0
May1.17.221.146.996.71.711.4
Jun2.35.818.054.2971.99.2
Jul0.63.718.643.994.72.210.7
Aug1.14.320.037.892.82.613.2
Sept1.17.623.234.593.22.917.3
Oct1.511.625.338.794.12.819.7
Nov2.314.828.239.994.12.922.6
Dec2.616.629.839.994.3323.7

source: Australian Government Bureau of Meteorology

Recently Sold Properties / House Prices

21-07-2022 $1,020,000 49 SUMMERLAND CRES COLEBEE 2761
18-07-2022 $1,630,000 37 STONECUTTERS DR COLEBEE 2761
13-07-2022 $1,300,000 18 WOODBURN ST COLEBEE 2761
11-07-2022 $1,240,000 43 CORONATO PDE COLEBEE 2761
08-07-2022 $1,410,000 18 KIRKWOOD CRES COLEBEE 2761
07-07-2022 $1,900,000 35 OAKHILL CRES COLEBEE 2761
04-07-2022 $1,700,000 60 MEDALLIST PDE COLEBEE 2761
01-07-2022 $1,190,000 40 SUNNINGDALE DR COLEBEE 2761
30-06-2022 $1,300,000 53 VICTORY RD COLEBEE 2761
22-06-2022 $1,235,000 35 SUMMERLAND CRES COLEBEE 2761
14-06-2022 $1,735,000 23 SETTLERS AVE COLEBEE 2761
14-06-2022 $1,173,500 9 COOMBELL AVE COLEBEE 2761
06-06-2022 $1,080,000 56 SUNNINGDALE DR COLEBEE 2761
31-05-2022 $1,105,000 4 SEGOVIA CRES COLEBEE 2761
26-05-2022 $1,180,000 17 EVERINGHAM ST COLEBEE 2761
23-05-2022 $1,639,000 12 POPPLEWELL AVE COLEBEE 2761
23-05-2022 $1,480,000 22 STONECUTTERS DR COLEBEE 2761
20-05-2022 $1,201,000 70 ALDERTON DR COLEBEE 2761
18-05-2022 $2,700,000 20 STONECUTTERS DR COLEBEE 2761
06-05-2022 $1,300,000 6 CORONATO PDE COLEBEE 2761
05-05-2022 $1,410,000 8 ELDORADO ST COLEBEE 2761
02-05-2022 $1,385,000 3 MEDALLIST PDE COLEBEE 2761
26-04-2022 $1,250,000 56 SUGARLOAF CRES COLEBEE 2761
22-04-2022 $1,700,500 47 SEBASTIAN CRES COLEBEE 2761
21-04-2022 $1,420,000 7 PINEHURST ST COLEBEE 2761
14-04-2022 $1,345,000 53 SUGARLOAF CRES COLEBEE 2761
11-04-2022 $1,540,000 28 STONECUTTERS DR COLEBEE 2761
08-04-2022 $973,000 2 CORONATO PDE COLEBEE 2761
28-03-2022 $1,222,000 20 VICTORY RD COLEBEE 2761
21-03-2022 $1,427,500 15 ELDORADO ST COLEBEE 2761
17-03-2022 $1,160,000 51 VICTORY RD COLEBEE 2761
01-03-2022 $1,450,000 14 SARAZEN PL COLEBEE 2761
28-02-2022 $1,160,000 9 ASPECT CRES COLEBEE 2761
24-02-2022 $1,522,000 30 MEDALLIST PDE COLEBEE 2761
21-02-2022 $1,520,000 9 BURRINGOA CRES COLEBEE 2761
16-02-2022 $575,000 12 SAVANNAH ST COLEBEE 2761
15-02-2022 $1,035,000 21 VICTORY RD COLEBEE 2761
02-02-2022 $400,000 184 STONECUTTERS DR COLEBEE 2761
01-02-2022 $900,000 67 CORONATO PDE COLEBEE 2761
21-01-2022 $1,202,000 28 SEBASTIAN CRES COLEBEE 2761
21-01-2022 $1,375,000 5 CRAMPTON WAY COLEBEE 2761
19-01-2022 $1,500,000 25 WOODBURN ST COLEBEE 2761
17-01-2022 $1,325,000 30 VICTORY RD COLEBEE 2761
13-01-2022 $1,100,000 7 COOMBELL AVE COLEBEE 2761
13-01-2022 $1,322,000 41 BROOKWATER CCT COLEBEE 2761
13-01-2022 $1,650,000 26 GRENFELL PL COLEBEE 2761
23-12-2021 $1,250,000 16 OAKHILL CRES COLEBEE 2761
20-12-2021 $1,305,000 159 STONECUTTERS DR COLEBEE 2761
17-12-2021 $1,720,000 66 OAKHILL CRES COLEBEE 2761
25-11-2021 $1,410,000 30 ASPECT CRES COLEBEE 2761

Internet Speed

  • Fibre to the Curb
  • Fibre to the Node
  • Fibre to the Premises
  • Hybrid Fibre Coaxial (HFC)
  • Satellite

Residz covers 12m+ Australian properties and brings together a wealth of data to give you a better understanding of an area. From crime and schools to bush fire, flood risk and more. Begin your search for properties for sale or learn more about where you currently reside. Residz is an exciting next-generation Real Estate platform getting better by the day!